Date String (YYYY-MM-DD hh:mm:ss) UTC,Instrument flags,absolute air pressure of the measurement (hPa),sample flow rate (lpm),inlet stack bypass flow (lpm),air temperature of the measurement (°C),ambient temperature measured by the external sensor (°C),aerosol sample conditioner tube jacket temperature (°C),OPC LED temperature (°C),internal box temperature (°C),relative humidity of the measurement (%),span deviation,mass concentration of particles derived from Lorenz-Mie calculation of OPC scattering (μg/m³),mass concentration of particles derived from Lorenz-Mie calculation of OPC scattering (μg/m³),mass concentration of particles derived from Lorenz-Mie calculation of OPC scattering (μg/m³)
DateTimeUTC,F1_M11,P_M11,Q1_M11,Q2_M11,T1_M11,T2_M11,T3_M11,T4_M11,T5_M11,U1_M11,ZSPAN_M11,X2_M11,X0_M11,X1_M11
2023-09-18 21:00:00,SystemResetWarning,0828.7,5.00,000.00,027.6,026.6,000.0,035.9,029.3,17.2,0000.0,0003.31,0007.53,0002.76
2023-09-18 21:01:00,SystemResetWarning,0828.7,4.99,000.00,027.6,026.1,000.0,035.8,029.3,16.8,0000.0,0003.30,0007.40,0002.74
2023-09-18 21:02:00,SystemResetWarning,0828.7,5.00,000.00,027.5,024.5,000.0,035.8,028.8,17.4,0000.0,0003.29,0008.02,0002.74
2023-09-18 21:03:00,SystemResetWarning,0828.6,5.00,000.00,027.4,023.9,000.0,035.7,028.7,17.6,0000.0,0003.27,0008.57,0002.73
2023-09-18 21:04:00,SystemResetWarning,0828.6,5.01,000.00,027.4,024.2,000.0,035.7,028.7,17.2,0000.0,0003.26,0008.54,0002.71
2023-09-18 21:05:00,SystemResetWarning,0828.6,5.00,000.00,027.3,024.5,000.0,035.7,028.8,17.0,0000.0,0003.25,0009.16,0002.69
2023-09-18 21:06:00,SystemResetWarning,0828.6,4.99,000.00,027.3,024.9,000.0,035.7,028.9,17.4,0000.0,0003.25,0009.49,0002.67
2023-09-18 21:07:00,SystemResetWarning,0828.6,5.00,000.00,027.4,025.3,000.0,035.7,029.0,16.5,0000.0,0003.24,0009.50,0002.65
2023-09-18 21:08:00,SystemResetWarning,0828.6,5.00,000.00,027.4,025.7,000.0,035.8,029.1,16.8,0000.0,0003.21,0009.41,0002.65
2023-09-18 21:09:00,SystemResetWarning,0828.6,5.00,000.00,027.5,026.0,000.0,035.8,029.2,17.5,0000.0,0003.18,0009.34,0002.64
2023-09-18 21:10:00,SystemResetWarning,0828.6,4.99,000.00,027.5,026.3,000.0,035.8,029.2,15.5,0000.0,0003.17,0009.49,0002.64
2023-09-18 21:11:00,SystemResetWarning,0828.6,5.00,000.00,027.6,026.5,000.0,035.8,029.3,15.9,0000.0,0003.16,0009.36,0002.63
2023-09-18 21:12:00,SystemResetWarning,0828.6,5.00,000.00,027.6,026.7,000.0,035.9,029.4,16.3,0000.0,0003.15,0009.52,0002.64
2023-09-18 21:13:00,SystemResetWarning,0828.6,5.00,000.00,027.7,026.6,000.0,035.9,029.4,16.8,0000.0,0003.16,0009.82,0002.65
2023-09-18 21:14:00,SystemResetWarning,0828.6,5.00,000.00,027.6,025.1,000.0,035.8,028.9,16.3,0000.0,0003.18,0008.93,0002.65
2023-09-18 21:15:00,SystemResetWarning,0828.6,5.01,000.00,027.5,024.0,000.0,035.8,028.7,15.9,0000.0,0003.20,0009.06,0002.65
2023-09-18 21:16:00,SystemResetWarning,0828.6,5.01,000.00,027.4,024.2,000.0,035.7,028.8,16.4,0000.0,0003.20,0008.93,0002.65
2023-09-18 21:17:00,SystemResetWarning,0828.6,5.01,000.00,027.4,024.5,000.0,035.7,028.8,16.6,0000.0,0003.21,0008.12,0002.66
2023-09-18 21:18:00,SystemResetWarning,0828.6,4.99,000.00,027.4,024.9,000.0,035.8,028.9,16.7,0000.0,0003.18,0008.21,0002.67
2023-09-18 21:19:00,SystemResetWarning,0828.6,5.00,000.00,027.4,025.3,000.0,035.8,029.0,16.9,0000.0,0003.16,0008.12,0002.67
2023-09-18 21:20:00,SystemResetWarning,0828.6,5.01,000.00,027.5,025.7,000.0,035.8,029.1,16.3,0000.0,0003.15,0008.40,0002.67
2023-09-18 21:21:00,SystemResetWarning,0828.6,5.00,000.00,027.5,026.0,000.0,035.8,029.2,15.8,0000.0,0003.17,0008.79,0002.67
2023-09-18 21:22:00,SystemResetWarning,0828.5,5.00,000.00,027.5,026.3,000.0,035.8,029.3,16.3,0000.0,0003.18,0008.11,0002.67
2023-09-18 21:23:00,SystemResetWarning,0828.5,4.99,000.00,027.6,026.5,000.0,035.9,029.3,16.7,0000.0,0003.17,0007.77,0002.67
2023-09-18 21:24:00,SystemResetWarning,0828.5,5.00,000.00,027.7,026.7,000.0,035.9,029.4,16.6,0000.0,0003.16,0006.74,0002.66
2023-09-18 21:25:00,SystemResetWarning,0828.5,4.99,000.00,027.7,026.7,000.0,035.9,029.5,16.9,0000.0,0003.13,0006.13,0002.65
2023-09-18 21:26:00,SystemResetWarning,0828.5,5.00,000.00,027.7,025.5,000.0,035.9,029.1,17.1,0000.0,0003.13,0006.00,0002.66
2023-09-18 21:27:00,SystemResetWarning,0828.4,5.00,000.00,027.5,024.1,000.0,035.8,028.7,16.5,0000.0,0003.11,0005.93,0002.66
2023-09-18 21:28:00,SystemResetWarning,0828.4,5.01,000.00,027.5,024.1,000.0,035.8,028.8,16.3,0000.0,0003.12,0006.31,0002.65
2023-09-18 21:29:00,SystemResetWarning,0828.4,5.01,000.00,027.4,024.4,000.0,035.8,028.8,17.2,0000.0,0003.16,0006.28,0002.64
2023-09-18 21:30:00,SystemResetWarning,0828.5,4.99,000.00,027.4,024.8,000.0,035.8,028.9,17.3,0000.0,0003.16,0006.71,0002.64
2023-09-18 21:31:00,SystemResetWarning,0828.5,5.00,000.00,027.4,025.2,000.0,035.8,029.0,17.1,0000.0,0003.16,0006.58,0002.63
2023-09-18 21:32:00,SystemResetWarning,0828.5,5.00,000.00,027.5,025.6,000.0,035.8,029.1,16.8,0000.0,0003.14,0007.17,0002.62
2023-09-18 21:33:00,SystemResetWarning,0828.5,5.00,000.00,027.5,025.9,000.0,035.8,029.2,17.0,0000.0,0003.15,0007.18,0002.61
2023-09-18 21:34:00,SystemResetWarning,0828.5,5.01,000.00,027.5,026.2,000.0,035.8,029.2,17.1,0000.0,0003.14,0007.22,0002.59
2023-09-18 21:35:00,SystemResetWarning,0828.4,4.99,000.00,027.6,026.4,000.0,035.9,029.3,17.5,0000.0,0003.14,0007.30,0002.59
2023-09-18 21:36:00,SystemResetWarning,0828.4,4.98,000.00,027.7,026.6,000.0,035.9,029.4,17.1,0000.0,0003.13,0007.31,0002.58
2023-09-18 21:37:00,SystemResetWarning,0828.4,5.01,000.00,027.7,025.7,000.0,035.9,029.2,17.7,0000.0,0003.11,0007.61,0002.54
2023-09-18 21:38:00,SystemResetWarning,0828.4,5.00,000.00,027.5,024.1,000.0,035.8,028.8,18.1,0000.0,0003.11,0007.66,0002.51
2023-09-18 21:39:00,SystemResetWarning,0828.4,5.00,000.00,027.4,023.9,000.0,035.8,028.7,17.2,0000.0,0003.10,0007.55,0002.49
2023-09-18 21:40:00,SystemResetWarning,0828.4,5.01,000.00,027.4,024.2,000.0,035.7,028.8,16.8,0000.0,0003.03,0007.33,0002.48
2023-09-18 21:41:00,SystemResetWarning,0828.4,5.00,000.00,027.3,024.6,000.0,035.7,028.8,16.9,0000.0,0002.99,0007.05,0002.46
2023-09-18 21:42:00,SystemResetWarning,0828.4,5.00,000.00,027.4,025.0,000.0,035.8,028.9,17.0,0000.0,0002.97,0007.59,0002.44
2023-09-18 21:43:00,SystemResetWarning,0828.4,5.01,000.00,027.4,025.4,000.0,035.8,029.0,16.9,0000.0,0002.97,0006.89,0002.43
2023-09-18 21:44:00,SystemResetWarning,0828.4,5.00,000.00,027.4,025.8,000.0,035.8,029.1,16.8,0000.0,0002.93,0006.44,0002.42
2023-09-18 21:45:00,SystemResetWarning,0828.4,5.00,000.00,027.5,026.1,000.0,035.8,029.2,16.8,0000.0,0002.88,0007.60,0002.43
2023-09-18 21:46:00,SystemResetWarning,0828.4,5.00,000.00,027.5,026.3,000.0,035.8,029.2,16.7,0000.0,0002.84,0007.53,0002.42
2023-09-18 21:47:00,SystemResetWarning,0828.4,5.00,000.00,027.6,026.6,000.0,035.9,029.3,16.7,0000.0,0002.87,0007.54,0002.41
2023-09-18 21:48:00,SystemResetWarning,0828.4,5.00,000.00,027.7,026.8,000.0,035.9,029.4,16.7,0000.0,0002.86,0007.15,0002.41
2023-09-18 21:49:00,SystemResetWarning,0828.4,5.00,000.00,027.7,026.3,000.0,035.9,029.3,16.6,0000.0,0002.85,0006.90,0002.42
2023-09-18 21:50:00,SystemResetWarning,0828.4,5.00,000.00,027.6,024.7,000.0,035.8,028.9,16.9,0000.0,0002.84,0006.88,0002.43
2023-09-18 21:51:00,SystemResetWarning,0828.4,5.01,000.00,027.5,024.1,000.0,035.8,028.8,17.1,0000.0,0002.85,0006.85,0002.44
2023-09-18 21:52:00,SystemResetWarning,0828.4,5.00,000.00,027.4,024.3,000.0,035.8,028.8,16.6,0000.0,0002.91,0007.07,0002.43
2023-09-18 21:53:00,SystemResetWarning,0828.4,5.00,000.00,027.4,024.7,000.0,035.8,028.8,16.5,0000.0,0002.96,0007.42,0002.44
2023-09-18 21:54:00,SystemResetWarning,0828.3,5.00,000.00,027.4,025.1,000.0,035.8,028.9,16.7,0000.0,0002.99,0007.25,0002.43
2023-09-18 21:55:00,SystemResetWarning,0828.3,4.99,000.00,027.4,025.5,000.0,035.8,029.1,16.3,0000.0,0003.02,0007.18,0002.43
2023-09-18 21:56:00,SystemResetWarning,0828.4,5.01,000.00,027.5,025.8,000.0,035.8,029.1,16.1,0000.0,0003.03,0005.81,0002.44
2023-09-18 21:57:00,SystemResetWarning,0828.4,5.00,000.00,027.5,026.1,000.0,035.8,029.2,16.0,0000.0,0003.08,0006.87,0002.43
2023-09-18 21:58:00,SystemResetWarning,0828.3,4.99,000.00,027.6,026.4,000.0,035.9,029.3,16.0,0000.0,0003.08,0006.89,0002.44
2023-09-18 21:59:00,SystemResetWarning,0828.3,4.99,000.00,027.7,026.7,000.0,035.9,029.4,16.0,0000.0,0003.09,0006.88,0002.46
